Flag for Norway Weather past 2 weeks in Vossevangen, Norway

39 °F

Sprinkles. Partly cloudy.

Feels Like: 34 °F
Forecast: 33 / 40 °F
Wind: 7 mph from Southeast

Location: Bergen / Flesland

Current Time: Nov 25, 2015 at 5:49:09 AM

Latest Report: Nov 25, 2015 at 4:50 AM

Visibility: N/A

Pressure: 29.33 "Hg

Humidity: 100%

Dew point: 39 °F

Location of VossevangenLocation

Historic Weather in Vossevangen — Graph


Vossevangen temperature yesterday

Maximum temperature yesterday: 43 °F (at 2:50 AM)
Minimum temperature yesterday: 39 °F (at 10:50 PM)
Average temperature yesterday: 42 °F

Past Weeks' High & Low Weather Summary

High50 °F (Nov 10, 4:50 AM)100% (Nov 10, 9:20 AM)30.01 "Hg (Nov 10, 9:20 AM)
Low25 °F (Nov 22, 3:50 AM)56% (Nov 22, 1:50 PM)29.03 "Hg (Nov 16, 11:50 AM)
Average41 °F83%29.50 "Hg
* Reported Nov 10 3:50 AM — Nov 25 3:50 AM, Vossevangen, Weather by CustomWeather, © 2015

Note: Actual official high and low records may vary slightly from our data, if they occured in-between our weather recording intervals... More about our weather records


Vossevangen weather history for previous 24 hours

Time TempWeatherWind HumidityBarometerVisibility
3:50 AM
Wed, Nov 25
39 °FSprinkles. Partly cloudy.9 mph93%29.33 "HgN/A
2:50 AM41 °FPartly cloudy.9 mph93%29.33 "HgN/A
1:50 AM41 °FSprinkles. Partly cloudy.10 mph93%29.33 "HgN/A
12:50 AM41 °FScattered showers. Partly cloudy.10 mph93%29.33 "HgN/A
11:50 PM
Tue, Nov 24
39 °FPassing clouds.5 mph93%29.33 "HgN/A
11:20 PM39 °FSprinkles. Partly cloudy.10 mph87%29.33 "HgN/A
10:50 PM39 °FScattered showers. Partly cloudy.7 mph93%29.33 "HgN/A
10:20 PM41 °FScattered showers. Partly cloudy.10 mph100%29.33 "HgN/A
9:50 PM41 °FScattered showers. Partly cloudy.10 mph100%29.33 "HgN/A
9:20 PM41 °FSprinkles. Partly cloudy.10 mph93%29.33 "Hg6 mi
8:50 PM41 °FSprinkles. Partly cloudy.10 mph93%29.33 "HgN/A
8:20 PM41 °FSprinkles. Partly cloudy.8 mph93%29.36 "HgN/A
7:50 PM41 °FSprinkles. Partly cloudy.10 mph93%29.36 "HgN/A
7:20 PM41 °FSprinkles. Partly cloudy.7 mph100%29.36 "HgN/A
6:50 PM41 °FRain showers. Partly cloudy.9 mph93%29.36 "HgN/A
6:20 PM43 °FSprinkles. Partly cloudy.10 mph93%29.36 "HgN/A
5:50 PM43 °FSprinkles. Partly cloudy.10 mph87%29.36 "HgN/A
5:20 PM41 °FSprinkles. Partly cloudy.10 mph93%29.39 "HgN/A
4:50 PM41 °FScattered showers. Partly cloudy.8 mph93%29.39 "HgN/A
4:20 PM43 °FScattered showers. Partly cloudy.12 mph87%29.39 "HgN/A
3:50 PM41 °FScattered showers. Partly cloudy.9 mph93%29.39 "HgN/A
3:20 PM43 °FScattered showers. Broken clouds.10 mph87%29.39 "HgN/A
2:50 PM43 °FSprinkles. Broken clouds.10 mph93%29.42 "HgN/A
2:20 PM43 °FScattered showers. Broken clouds.9 mph93%29.42 "HgN/A
1:50 PM43 °FScattered showers. Broken clouds.8 mph93%29.42 "HgN/A
1:20 PM43 °FScattered showers. Broken clouds.8 mph93%29.42 "HgN/A
12:50 PM43 °FScattered showers. Broken clouds.8 mph93%29.42 "HgN/A
12:20 PM43 °FSprinkles. Broken clouds.6 mph93%29.45 "HgN/A
11:50 AM43 °FSprinkles. Broken clouds.10 mph93%29.45 "HgN/A
11:20 AM41 °FBroken clouds.10 mph93%29.45 "HgN/A
10:50 AM41 °FBroken clouds.9 mph93%29.45 "HgN/A
10:20 AM41 °FBroken clouds.6 mph93%29.45 "HgN/A
9:50 AM41 °FBroken clouds.6 mph93%29.47 "HgN/A
9:20 AM41 °FScattered showers. Broken clouds.5 mph93%29.47 "HgN/A
8:50 AM41 °FPartly cloudy.5 mph87%29.47 "HgN/A
8:20 AM41 °FPassing clouds.7 mph87%29.47 "HgN/A
7:50 AM43 °FScattered showers. Partly cloudy.8 mph87%29.47 "HgN/A
6:50 AM41 °FPartly cloudy.5 mph100%29.47 "HgN/A
6:20 AM43 °FPartly cloudy.5 mph93%29.47 "HgN/A
5:50 AM43 °FPartly cloudy.2 mph93%29.47 "HgN/A
Weather by CustomWeather, © 2015

See weather overviewHow to use our weather pages